^^
Garrymore Weather Station Historical Data
 
Daily Summary for November 17, 2019 Units:  Metric    English   Both
Daily Weekly Monthly Yearly Custom
  Current: High: Low: Average:
Temperature: 3 °C 3 °C 0 °C 2 °C
Dew Point: 2 °C 2 °C -2 °C 0.4 °C
Humidity: 92% 92% 85% 89%
Wind Speed: 2km/h 10km/h 0km/h 2.9km/h
Wind Gust: 5km/h 14km/h - -
WindNNW - - NW
Pressure: 1018.39 hPa 1018.39 hPa 1014.22 hPa -
Precipitation: 0 mm      
Historical Graphs
 
 
Tabular Data for November 17, 2019
Time Temperature Dew Point Pressure Wind Wind Speed Wind Gust Humidity Rainfall Rate (Hourly) solar
00:00 0 °C -2 °C 1014.22 hPa NW 2 km/h 10 km/h 85% 0 mm 0 W/m2
00:05 1 °C -2 °C 1014.29 hPa NW 2 km/h 5 km/h 85% 0 mm 0 W/m2
00:10 1 °C -2 °C 1014.29 hPa NNW 2 km/h 3 km/h 85% 0 mm 0 W/m2
00:15 1 °C -2 °C 1014.43 hPa Calm   3 km/h 85% 0 mm 0 W/m2
00:20 1 °C -2 °C 1014.49 hPa NNW 2 km/h 3 km/h 85% 0 mm 0 W/m2
00:25 1 °C -2 °C 1014.39 hPa NNW 2 km/h 5 km/h 86% 0 mm 0 W/m2
00:30 1 °C -2 °C 1014.39 hPa NNW 2 km/h 6 km/h 86% 0 mm 0 W/m2
00:35 1 °C -2 °C 1014.6 hPa NNW 2 km/h 5 km/h 86% 0 mm 0 W/m2
00:40 1 °C -2 °C 1014.49 hPa NNW 2 km/h 5 km/h 86% 0 mm 0 W/m2
00:45 1 °C -2 °C 1014.49 hPa NNW 2 km/h 5 km/h 86% 0 mm 0 W/m2
00:50 1 °C -2 °C 1014.49 hPa NNW 2 km/h 5 km/h 86% 0 mm 0 W/m2
00:55 1 °C -2 °C 1014.6 hPa NNW 2 km/h 3 km/h 86% 0 mm 0 W/m2
01:00 1 °C -2 °C 1014.6 hPa NNW 3 km/h 5 km/h 86% 0 mm 0 W/m2
01:05 1 °C -2 °C 1014.6 hPa NW 2 km/h 5 km/h 86% 0 mm 0 W/m2
01:10 1 °C -2 °C 1014.43 hPa NW 3 km/h 6 km/h 86% 0 mm 0 W/m2
01:15 1 °C -1 °C 1014.49 hPa NW 3 km/h 6 km/h 86% 0 mm 0 W/m2
01:20 1 °C -1 °C 1014.6 hPa NW 3 km/h 6 km/h 86% 0 mm 0 W/m2
01:25 1 °C -1 °C 1014.6 hPa NW 3 km/h 10 km/h 87% 0 mm 0 W/m2
01:30 1 °C -1 °C 1014.7 hPa NW 3 km/h 6 km/h 87% 0 mm 0 W/m2
01:35 1 °C -1 °C 1014.7 hPa NW 3 km/h 8 km/h 87% 0 mm 0 W/m2
01:40 1 °C -1 °C 1014.6 hPa NW 3 km/h 6 km/h 87% 0 mm 0 W/m2
01:45 1 °C -1 °C 1014.7 hPa NW 2 km/h 6 km/h 87% 0 mm 0 W/m2
01:50 1 °C -1 °C 1014.7 hPa NW 2 km/h 5 km/h 87% 0 mm 0 W/m2
01:55 1 °C -1 °C 1014.6 hPa NW 2 km/h 3 km/h 86% 0 mm 0 W/m2
02:00 1 °C -1 °C 1014.63 hPa NW 2 km/h 5 km/h 86% 0 mm 0 W/m2
02:05 1 °C -1 °C 1014.6 hPa NW 2 km/h 5 km/h 86% 0 mm 0 W/m2
02:10 1 °C -1 °C 1014.7 hPa NNW 2 km/h 3 km/h 86% 0 mm 0 W/m2
02:15 1 °C -1 °C 1014.7 hPa NNW 2 km/h 5 km/h 86% 0 mm 0 W/m2
02:20 1 °C -1 °C 1014.7 hPa NW 2 km/h 5 km/h 86% 0 mm 0 W/m2
02:25 1 °C -1 °C 1014.7 hPa NW 2 km/h 3 km/h 86% 0 mm 0 W/m2
02:30 1 °C -1 °C 1014.7 hPa NW 2 km/h 5 km/h 86% 0 mm 0 W/m2
02:35 1 °C -1 °C 1014.9 hPa NNW 2 km/h 5 km/h 86% 0 mm 0 W/m2
02:40 1 °C -1 °C 1015 hPa NW 2 km/h 3 km/h 86% 0 mm 0 W/m2
02:45 1 °C -1 °C 1014.8 hPa Calm   3 km/h 86% 0 mm 0 W/m2
02:50 1 °C -1 °C 1014.8 hPa Calm   3 km/h 86% 0 mm 0 W/m2
02:55 1 °C -1 °C 1014.9 hPa Calm   2 km/h 86% 0 mm 0 W/m2
03:00 1 °C -1 °C 1014.8 hPa Calm   3 km/h 86% 0 mm 0 W/m2
03:05 1 °C -1 °C 1014.8 hPa NW 2 km/h 3 km/h 86% 0 mm 0 W/m2
03:10 1 °C -1 °C 1014.9 hPa NNW 2 km/h 5 km/h 86% 0 mm 0 W/m2
03:15 1 °C -1 °C 1014.9 hPa WNW 2 km/h 5 km/h 86% 0 mm 0 W/m2
03:20 1 °C -1 °C 1014.9 hPa WNW 3 km/h 8 km/h 86% 0 mm 0 W/m2
03:25 2 °C 0 °C 1014.9 hPa WNW 5 km/h 10 km/h 87% 0 mm 0 W/m2
03:30 2 °C 0 °C 1015 hPa WNW 5 km/h 14 km/h 87% 0 mm 0 W/m2
03:35 2 °C 1 °C 1015 hPa NW 5 km/h 14 km/h 91% 0 mm 0 W/m2
03:40 2 °C 1 °C 1015 hPa NW 8 km/h 13 km/h 91% 0 mm 0 W/m2
03:45 2 °C 1 °C 1015.1 hPa NW 5 km/h 11 km/h 91% 0 mm 0 W/m2
03:50 2 °C 1 °C 1015 hPa WNW 3 km/h 8 km/h 92% 0 mm 0 W/m2
03:55 2 °C 1 °C 1015.21 hPa NW 3 km/h 6 km/h 91% 0 mm 0 W/m2
04:00 2 °C 1 °C 1015.21 hPa NNW 3 km/h 8 km/h 91% 0 mm 0 W/m2
04:05 2 °C 1 °C 1015.31 hPa NNW 3 km/h 8 km/h 91% 0 mm 0 W/m2
04:10 2 °C 1 °C 1015.1 hPa NNW 2 km/h 8 km/h 91% 0 mm 0 W/m2
04:15 2 °C 1 °C 1015.31 hPa NW 3 km/h 8 km/h 91% 0 mm 0 W/m2
04:20 2 °C 1 °C 1015.41 hPa NW 5 km/h 10 km/h 91% 0 mm 0 W/m2
04:25 2 °C 1 °C 1015.31 hPa NW 3 km/h 8 km/h 91% 0 mm 0 W/m2
04:30 2 °C 1 °C 1015.21 hPa NW 3 km/h 6 km/h 91% 0 mm 0 W/m2
04:35 2 °C 1 °C 1015.31 hPa NW 2 km/h 8 km/h 91% 0 mm 0 W/m2
04:40 2 °C 1 °C 1015.21 hPa NW 2 km/h 6 km/h 91% 0 mm 0 W/m2
04:45 2 °C 1 °C 1015.41 hPa NW 3 km/h 8 km/h 92% 0 mm 0 W/m2
04:50 2 °C 1 °C 1015.51 hPa NW 2 km/h 6 km/h 92% 0 mm 0 W/m2
04:55 2 °C 1 °C 1015.51 hPa NW 2 km/h 6 km/h 92% 0 mm 0 W/m2
05:00 2 °C 1 °C 1015.51 hPa NW 2 km/h 5 km/h 92% 0 mm 0 W/m2
05:05 2 °C 1 °C 1015.51 hPa NW 2 km/h 3 km/h 92% 0 mm 0 W/m2
05:10 3 °C 1 °C 1015.68 hPa NW 3 km/h 5 km/h 92% 0 mm 0 W/m2
05:15 3 °C 1 °C 1015.78 hPa NW 5 km/h 8 km/h 92% 0 mm 0 W/m2
05:20 3 °C 1 °C 1015.68 hPa NNW 3 km/h 8 km/h 92% 0 mm 0 W/m2
05:25 3 °C 1 °C 1015.71 hPa NNW 2 km/h 6 km/h 92% 0 mm 0 W/m2
05:30 3 °C 1 °C 1015.61 hPa NNW 3 km/h 8 km/h 92% 0 mm 0 W/m2
05:35 3 °C 1 °C 1015.82 hPa NW 5 km/h 8 km/h 92% 0 mm 0 W/m2
05:40 3 °C 2 °C 1015.78 hPa NW 5 km/h 10 km/h 92% 0 mm 0 W/m2
05:45 3 °C 2 °C 1015.88 hPa NW 5 km/h 10 km/h 92% 0 mm 0 W/m2
05:50 3 °C 2 °C 1015.92 hPa NW 3 km/h 8 km/h 92% 0 mm 0 W/m2
05:55 3 °C 2 °C 1015.82 hPa NW 5 km/h 10 km/h 92% 0 mm 0 W/m2
06:00 3 °C 2 °C 1015.88 hPa NW 5 km/h 10 km/h 92% 0 mm 0 W/m2
06:05 3 °C 2 °C 1015.88 hPa NW 10 km/h 13 km/h 92% 0 mm 0 W/m2
06:10 3 °C 2 °C 1016.09 hPa NW 5 km/h 13 km/h 92% 0 mm 0 W/m2
06:15 3 °C 2 °C 1016.12 hPa NW 5 km/h 11 km/h 92% 0 mm 0 W/m2
06:20 3 °C 2 °C 1016.19 hPa NW 8 km/h 10 km/h 91% 0 mm 0 W/m2
06:25 3 °C 2 °C 1016.12 hPa NW 8 km/h 13 km/h 92% 0 mm 0 W/m2
06:30 3 °C 2 °C 1016.29 hPa NW 5 km/h 10 km/h 92% 0 mm 0 W/m2
06:35 3 °C 2 °C 1016.49 hPa NW 5 km/h 10 km/h 92% 0 mm 0 W/m2
06:40 3 °C 2 °C 1016.49 hPa NW 5 km/h 8 km/h 92% 0 mm 0 W/m2
06:45 3 °C 2 °C 1016.49 hPa NNW 2 km/h 8 km/h 92% 0 mm 0 W/m2
06:50 3 °C 2 °C 1016.8 hPa NNW 2 km/h 3 km/h 92% 0 mm 0 W/m2
06:55 3 °C 2 °C 1017 hPa NNE 2 km/h 3 km/h 92% 0 mm 0 W/m2
07:00 3 °C 2 °C 1017.1 hPa NE 2 km/h 3 km/h 92% 0 mm 0 W/m2
07:05 3 °C 2 °C 1017.1 hPa NE 2 km/h 3 km/h 92% 0 mm 0 W/m2
07:10 3 °C 2 °C 1017.1 hPa Calm   3 km/h 92% 0 mm 0 W/m2
07:15 3 °C 2 °C 1017.1 hPa Calm   2 km/h 92% 0 mm 0 W/m2
07:20 3 °C 2 °C 1017.2 hPa NNE 2 km/h 3 km/h 92% 0 mm 0 W/m2
07:25 3 °C 2 °C 1017.1 hPa N 2 km/h 6 km/h 92% 0 mm 0 W/m2
07:30 3 °C 2 °C 1017.41 hPa NNW 2 km/h 8 km/h 92% 0 mm 0 W/m2
07:35 3 °C 2 °C 1017.51 hPa NNW 3 km/h 8 km/h 92% 0 mm 0 W/m2
07:40 3 °C 2 °C 1017.51 hPa NNW 5 km/h 10 km/h 92% 0 mm 0 W/m2
07:45 3 °C 2 °C 1017.68 hPa NNW 2 km/h 8 km/h 92% 0 mm 0 W/m2
07:50 3 °C 2 °C 1017.78 hPa NNW 2 km/h 6 km/h 92% 0 mm 0 W/m2
07:55 3 °C 2 °C 1017.81 hPa NNW 5 km/h 8 km/h 92% 0 mm 0 W/m2
08:00 3 °C 2 °C 1017.81 hPa NNW 2 km/h 8 km/h 92% 0 mm 0 W/m2
08:05 3 °C 2 °C 1018.08 hPa NNW 2 km/h 8 km/h 92% 0 mm 0 W/m2
08:10 3 °C 2 °C 1018.08 hPa N 2 km/h 6 km/h 92% 0 mm 0 W/m2
08:15 3 °C 2 °C 1018.08 hPa NNW 2 km/h 8 km/h 92% 0 mm 0 W/m2
08:20 3 °C 2 °C 1018.12 hPa NW 2 km/h 10 km/h 92% 0 mm 0 W/m2
08:25 3 °C 2 °C 1018.39 hPa NNW 2 km/h 5 km/h 92% 0 mm 0 W/m2
Garrymore Weather Station, Geashill, Tullamore, Offaly, Ireland
Compliments of Weather Underground - 2 mb